K4DNM Weather Reports


Display with metric or nautical units.
time (UTC)temp
F
wind
direction
speed
MPH
gust
MPH
rain 1hr
in
rain 24hr
in
rain mn
in
humidity
%
barometer
mb
20260509042704 59 273 2.0 5.0 0.00 0.00 0.00 78 1014.5
20260509042434 59 240 2.0 5.0 0.00 0.00 0.00 78 1014.5
20260509042307 59 240 2.0 5.0 0.00 0.00 0.00 78 1014.5
20260509041703 59 181 2.0 4.0 0.00 0.00 0.00 78 1014.4
20260509041425 59 283 2.0 4.0 0.00 0.00 0.00 77 1014.4
20260509041308 59 283 2.0 4.0 0.00 0.00 0.00 77 1014.4
20260509040704 59 189 1.0 3.0 0.00 0.00 0.00 77 1014.4
20260509040215 59 234 1.0 2.0 0.00 0.00 0.00 76 1014.3
20260509035923 60 252 1.0 4.0 0.00 0.00 0.00 76 1014.5
20260509035808 60 252 1.0 4.0 0.00 0.00 0.00 76 1014.5
20260509035203 60 248 2.0 7.0 0.00 0.00 0.00 75 1014.6
20260509034703 60 215 2.0 7.0 0.00 0.00 0.00 75 1014.6
20260509034424 60 264 2.0 4.0 0.00 0.00 0.00 74 1014.5
20260509034309 60 264 2.0 4.0 0.00 0.00 0.00 74 1014.5
20260509033704 60 257 2.0 5.0 0.00 0.00 0.00 74 1014.6
20260509033418 60 208 2.0 5.0 0.00 0.00 0.00 74 1014.7
20260509033305 60 208 2.0 5.0 0.00 0.00 0.00 74 1014.7
20260509032700 60 188 2.0 6.0 0.00 0.00 0.00 73 1014.8
20260509032202 60 193 2.0 6.0 0.00 0.00 0.00 73 1014.7
20260509031931 61 200 2.0 6.0 0.00 0.00 0.00 72 1014.8
20260509031806 61 200 2.0 6.0 0.00 0.00 0.00 72 1014.8
20260509031201 61 223 2.0 6.0 0.00 0.00 0.00 72 1014.7
20260509030701 61 198 2.0 8.0 0.00 0.00 0.00 72 1014.6
20260509030201 61 242 2.0 8.0 0.00 0.00 0.00 71 1014.7
20260509025701 61 173 3.0 8.0 0.00 0.00 0.00 71 1014.8
20260509025201 61 242 3.0 8.0 0.00 0.00 0.00 70 1014.8
20260509024701 61 97 2.0 8.0 0.00 0.00 0.00 71 1014.8
20260509024201 61 186 2.0 8.0 0.00 0.00 0.00 69 1014.9
20260509023659 62 229 3.0 8.0 0.00 0.00 0.00 70 1014.8
20260509023418 62 193 3.0 8.0 0.00 0.00 0.00 69 1014.8
20260509023259 62 193 3.0 8.0 0.00 0.00 0.00 69 1014.8
20260509022655 62 196 3.0 7.0 0.00 0.00 0.00 70 1014.9
20260509022155 62 224 3.0 7.0 0.00 0.00 0.00 70 1014.9
20260509021656 62 251 2.0 8.0 0.00 0.00 0.00 70 1014.9
20260509021155 62 203 2.0 8.0 0.00 0.00 0.00 71 1014.8
20260509021018 62 236 3.0 7.0 0.00 0.00 0.00 70 1014.8
20260509020916 62 236 3.0 7.0 0.00 0.00 0.00 70 1014.8
20260509020417 62 190 3.0 7.0 0.00 0.00 0.00 71 1014.9
20260509020300 62 190 3.0 7.0 0.00 0.00 0.00 71 1014.9
20260509015656 62 233 3.0 7.0 0.00 0.00 0.00 71 1014.8
20260509015425 62 231 3.0 8.0 0.00 0.00 0.00 71 1014.6
20260509015301 62 231 3.0 8.0 0.00 0.00 0.00 71 1014.6
20260509014657 61 208 3.0 8.0 0.00 0.00 0.00 70 1014.6
20260509014156 61 205 3.0 7.0 0.00 0.00 0.00 71 1014.7
20260509013927 59 217 2.0 7.0 0.00 0.00 0.00 73 1014.8
20260509013758 59 217 2.0 7.0 0.00 0.00 0.00 73 1014.8
20260509013153 58 188 1.0 7.0 0.00 0.00 0.00 81 1014.6
20260509012653 58 127 1.0 2.0 0.00 0.00 0.00 83 1014.4
20260509012421 58 285 1.0 2.0 0.00 0.00 0.00 82 1014.3
20260509012300 58 285 1.0 2.0 0.00 0.00 0.00 82 1014.3
20260509011655 59 281 1.0 2.0 0.00 0.00 0.00 82 1014.3
20260509011154 59 0 1.0 2.0 0.00 0.00 0.00 81 1014.1
20260509010654 59 257 1.0 2.0 0.00 0.00 0.00 80 1014.0
20260509010155 60 263 1.0 2.0 0.00 0.00 0.00 80 1014.0
20260509005918 60 279 1.0 2.0 0.00 0.01 0.00 79 1014.0
20260509005759 60 279 1.0 2.0 0.00 0.01 0.00 79 1014.0
20260509005420 60 277 1.0 2.0 0.00 0.05 0.00 79 1013.9
20260509005300 60 277 1.0 2.0 0.00 0.05 0.00 79 1013.9
20260509004920 61 270 1.0 2.0 0.00 0.09 0.00 77 1013.8
20260509004800 61 270 1.0 2.0 0.00 0.09 0.00 77 1013.8
20260509004152 61 143 1.0 2.0 0.00 0.10 0.00 77 1013.9
20260509003648 61 262 1.0 2.0 0.00 0.13 0.00 76 1013.9
20260509003148 61 171 1.0 2.0 0.00 0.22 0.00 74 1013.7
20260509002648 62 315 1.0 2.0 0.00 0.22 0.00 71 1013.6
20260509002148 62 265 1.0 2.0 0.00 0.22 0.00 68 1013.7
20260509001646 62 261 1.0 2.0 0.00 0.22 0.00 66 1013.7
20260509001145 63 137 1.0 2.0 0.00 0.22 0.00 66 1013.7
20260509000908 63 0 0.0 1.0 0.00 0.22 0.00 67 1013.6
20260509000750 63 0 0.0 1.0 0.00 0.22 0.00 67 1013.6
20260509000146 63 0 0.0 1.0 0.00 0.22 0.00 64 1013.7
20260508235645 64 153 1.0 2.0 0.00 0.22 0.00 64 1013.6
20260508235413 64 281 1.0 2.0 0.00 0.22 0.00 63 1013.8
20260508235251 64 281 1.0 2.0 0.00 0.22 0.00 63 1013.8
20260508234646 65 0 0.0 2.0 0.00 0.22 0.00 62 1013.6
20260508234146 65 0 0.0 1.0 0.00 0.22 0.00 61 1013.6
20260508233646 66 0 0.0 1.0 0.00 0.22 0.00 61 1013.6
20260508233144 66 243 0.0 2.0 0.00 0.22 0.00 59 1013.5
20260508232643 66 24 1.0 2.0 0.00 0.22 0.00 57 1013.6
20260508232404 67 261 1.0 3.0 0.00 0.22 0.00 57 1013.5
20260508232245 67 261 1.0 3.0 0.00 0.22 0.00 57 1013.5
20260508231637 67 242 1.0 3.0 0.00 0.22 0.00 55 1013.5
20260508231138 67 230 1.0 4.0 0.00 0.22 0.00 55 1013.3
20260508231127 68 220 1.0 4.0 0.00 0.22 0.00 54 1013.4
20260508230742 68 220 1.0 4.0 0.00 0.22 0.00 54 1013.4
20260508230138 68 135 1.0 4.0 0.00 0.22 0.00 52 1013.5
20260508225638 68 255 1.0 4.0 0.00 0.22 0.00 52 1013.5
20260508225138 68 185 1.0 4.0 0.00 0.22 0.00 52 1013.5
20260508224635 69 164 1.0 3.0 0.00 0.22 0.00 52 1013.5
20260508224135 69 211 1.0 4.0 0.00 0.22 0.00 51 1013.4
20260508223634 69 174 1.0 5.0 0.00 0.22 0.00 50 1013.3
20260508223135 69 166 2.0 5.0 0.00 0.22 0.00 50 1013.3
20260508222852 69 0 1.0 4.0 0.00 0.22 0.00 49 1013.3
20260508222740 69 0 1.0 4.0 0.00 0.22 0.00 49 1013.3
20260508222405 69 185 1.0 4.0 0.00 0.22 0.00 50 1013.3
20260508222135 69 185 1.0 4.0 0.00 0.22 0.00 50 1013.3
20260508221634 70 240 1.0 3.0 0.00 0.22 0.00 49 1013.3
20260508221134 70 166 1.0 4.0 0.00 0.22 0.00 47 1013.2
20260508220634 70 193 1.0 4.0 0.00 0.22 0.00 47 1013.2
20260508220134 70 189 1.0 4.0 0.00 0.22 0.00 48 1013.1
20260508215634 70 229 2.0 4.0 0.00 0.22 0.00 46 1013.1
20260508215133 71 143 2.0 4.0 0.00 0.22 0.00 45 1013.1
20260508214859 71 147 2.0 6.0 0.00 0.22 0.00 45 1013.1
20260508214736 71 147 2.0 6.0 0.00 0.22 0.00 45 1013.1
20260508214351 71 208 2.0 6.0 0.00 0.22 0.00 43 1013.2
20260508214233 71 208 2.0 6.0 0.00 0.22 0.00 43 1013.2
20260508213846 72 145 1.0 4.0 0.00 0.22 0.00 44 1013.1
20260508213733 72 145 1.0 4.0 0.00 0.22 0.00 44 1013.1
20260508213353 71 0 1.0 5.0 0.00 0.22 0.00 47 1013.2
20260508213234 71 0 1.0 5.0 0.00 0.22 0.00 47 1013.2
20260508212628 71 53 1.0 5.0 0.00 0.22 0.00 43 1013.2
20260508212123 72 129 1.0 4.0 0.00 0.22 0.00 45 1013.2
20260508211623 72 232 1.0 4.0 0.00 0.22 0.00 43 1013.2
20260508211124 72 220 1.0 4.0 0.00 0.22 0.00 42 1013.3
20260508210853 72 0 1.0 4.0 0.00 0.22 0.00 41 1013.3
20260508210625 72 0 1.0 4.0 0.00 0.22 0.00 41 1013.3
20260508210347 72 247 1.0 3.0 0.00 0.22 0.00 40 1013.3
20260508210229 72 247 1.0 3.0 0.00 0.22 0.00 40 1013.3
20260508205626 72 219 2.0 5.0 0.00 0.22 0.00 40 1013.4
20260508205124 72 241 2.0 5.0 0.00 0.23 0.00 40 1013.5
20260508204620 73 173 1.0 5.0 0.00 0.23 0.00 42 1013.6
20260508204119 72 35 1.0 5.0 0.00 0.24 0.00 41 1013.6
20260508203621 72 0 1.0 4.0 0.00 0.24 0.00 39 1013.8
20260508203117 72 333 2.0 7.0 0.00 0.25 0.00 40 1013.7
20260508202618 72 10 2.0 7.0 0.00 0.27 0.00 40 1013.6
20260508202114 73 166 2.0 5.0 0.00 0.28 0.00 41 1013.6
20260508201616 73 196 1.0 5.0 0.00 0.29 0.00 39 1013.7
20260508201114 73 29 2.0 6.0 0.00 0.30 0.00 41 1013.6
20260508200614 73 22 2.0 6.0 0.00 0.31 0.00 37 1013.8
20260508200117 73 160 1.0 4.0 0.00 0.31 0.00 41 1013.8
20260508195846 72 0 1.0 3.0 0.00 0.32 0.00 42 1013.9
20260508195616 72 0 1.0 3.0 0.00 0.32 0.00 42 1013.9
20260508195609 71 119 2.0 6.0 0.00 0.32 0.00 42 1014.0
20260508195219 71 119 2.0 6.0 0.00 0.32 0.00 42 1014.0
20260508194615 71 0 3.0 6.0 0.00 0.32 0.00 42 1014.0
20260508194112 72 183 3.0 7.0 0.00 0.32 0.00 46 1014.0
20260508193836 72 146 4.0 9.0 0.00 0.32 0.00 43 1014.1
20260508193718 72 146 4.0 9.0 0.00 0.32 0.00 43 1014.1
20260508193115 72 118 2.0 9.0 0.00 0.32 0.00 44 1014.1
20260508192616 73 323 1.0 4.0 0.00 0.32 0.00 40 1014.1
20260508192116 72 70 1.0 3.0 0.00 0.32 0.00 40 1014.1
20260508191615 72 346 2.0 4.0 0.00 0.32 0.00 41 1014.3
20260508191114 71 0 2.0 5.0 0.00 0.32 0.00 45 1014.3
20260508190614 71 0 2.0 5.0 0.00 0.32 0.00 41 1014.4
20260508190114 71 146 3.0 8.0 0.00 0.32 0.00 40 1014.6
20260508185612 70 141 5.0 10.0 0.00 0.33 0.00 42 1014.7
20260508185338 71 99 4.0 10.0 0.00 0.33 0.00 43 1014.7
20260508185112 71 99 4.0 10.0 0.00 0.33 0.00 43 1014.7
20260508184608 71 128 1.0 5.0 0.00 0.33 0.00 43 1014.7
20260508184109 70 315 1.0 4.0 0.00 0.33 0.00 42 1014.7
20260508183818 71 151 3.0 6.0 0.00 0.33 0.00 41 1014.9
20260508183704 71 351 2.0 5.0 0.00 0.33 0.00 41 1014.8
20260508183213 71 151 3.0 6.0 0.00 0.33 0.00 41 1014.9
20260508182608 70 174 3.0 6.0 0.00 0.33 0.00 43 1014.9
20260508182109 70 120 2.0 6.0 0.00 0.33 0.00 43 1014.9
20260508181608 69 210 4.0 10.0 0.00 0.33 0.00 46 1014.9
20260508181108 69 89 5.0 10.0 0.00 0.33 0.00 43 1015.0
20260508180608 69 126 4.0 10.0 0.00 0.33 0.00 45 1015.1
20260508180109 69 143 4.0 9.0 0.00 0.33 0.00 44 1015.2
20260508175606 69 137 6.0 10.0 0.00 0.33 0.00 48 1015.3
20260508175103 69 102 4.0 10.0 0.00 0.33 0.00 49 1015.3
20260508174601 69 102 3.0 8.0 0.00 0.33 0.00 47 1015.3
20260508174100 69 8 3.0 8.0 0.00 0.33 0.00 47 1015.3
20260508173600 69 98 2.0 6.0 0.00 0.33 0.00 48 1015.3
20260508173101 68 93 2.0 7.0 0.00 0.33 0.00 45 1015.3
20260508172601 68 36 3.0 8.0 0.00 0.33 0.00 46 1015.4
20260508172545 68 133 3.0 9.0 0.00 0.34 0.00 46 1015.4
20260508172206 68 133 3.0 9.0 0.00 0.34 0.00 46 1015.4
20260508171602 69 98 3.0 9.0 0.00 0.34 0.00 47 1015.4
20260508171101 69 89 1.0 9.0 0.00 0.35 0.00 47 1015.3
20260508170600 68 0 2.0 9.0 0.00 0.35 0.00 47 1015.4
20260508170329 67 150 4.0 9.0 0.00 0.35 0.00 45 1015.6
20260508165603 67 94 3.0 9.0 0.00 0.35 0.00 49 1015.7
20260508165542 67 78 3.0 8.0 0.00 0.35 0.00 48 1015.8
20260508165202 67 78 3.0 8.0 0.00 0.35 0.00 48 1015.8
20260508164821 67 99 2.0 7.0 0.00 0.35 0.00 47 1015.9
20260508164702 67 99 2.0 7.0 0.00 0.35 0.00 47 1015.9
20260508164058 67 91 2.0 8.0 0.00 0.35 0.00 47 1015.9
20260508163558 67 0 4.0 10.0 0.00 0.35 0.00 49 1016.1
20260508163055 67 103 3.0 10.0 0.00 0.35 0.00 47 1016.2
20260508162553 67 80 1.0 6.0 0.00 0.35 0.00 48 1016.2
20260508162315 67 49 2.0 6.0 0.00 0.35 0.00 49 1016.2
20260508162158 67 49 2.0 6.0 0.00 0.35 0.00 49 1016.2
20260508161553 66 66 5.0 11.0 0.00 0.35 0.00 50 1016.3
20260508161104 66 70 3.0 9.0 0.00 0.35 0.00 53 1016.4
20260508161053 66 112 6.0 11.0 0.00 0.35 0.00 52 1016.4
20260508160554 66 109 5.0 11.0 0.00 0.35 0.00 52 1016.4
20260508160209 66 70 3.0 9.0 0.00 0.35 0.00 53 1016.4
20260508155552 66 91 2.0 8.0 0.00 0.35 0.00 51 1016.4
20260508155051 66 60 4.0 11.0 0.00 0.35 0.00 52 1016.6
20260508154550 66 101 3.0 11.0 0.00 0.35 0.00 52 1016.6
20260508154050 66 99 3.0 9.0 0.00 0.35 0.00 49 1016.6
20260508153807 65 352 3.0 9.0 0.00 0.35 0.00 51 1016.6
20260508153653 65 352 3.0 9.0 0.00 0.35 0.00 51 1016.6
20260508153050 66 109 2.0 8.0 0.00 0.35 0.00 49 1016.6
20260508152811 65 0 3.0 11.0 0.00 0.35 0.00 50 1016.7
20260508152654 65 0 3.0 11.0 0.00 0.35 0.00 50 1016.7
20260508152050 65 102 3.0 11.0 0.00 0.35 0.00 50 1016.7
20260508151550 65 95 3.0 9.0 0.00 0.35 0.00 55 1016.7
20260508151317 65 92 4.0 9.0 0.00 0.35 0.00 56 1016.7
20260508151050 65 92 4.0 9.0 0.00 0.35 0.00 56 1016.7
20260508150549 65 48 3.0 7.0 0.00 0.35 0.00 57 1016.7
20260508150057 66 48 2.0 4.0 0.00 0.35 0.00 53 1016.6
20260508145544 65 48 2.0 4.0 0.00 0.35 0.00 56 1016.6
20260508145044 64 43 2.0 9.0 0.00 0.35 0.00 57 1016.6
20260508144804 64 97 3.0 10.0 0.00 0.35 0.00 59 1016.6
20260508144649 64 97 3.0 10.0 0.00 0.35 0.00 59 1016.6
20260508144044 64 86 4.0 11.0 0.00 0.35 0.00 62 1016.6
20260508143544 63 297 5.0 11.0 0.00 0.35 0.00 62 1016.6
20260508143047 64 98 3.0 9.0 0.00 0.35 0.00 62 1016.6
20260508142546 64 62 2.0 6.0 0.00 0.35 0.00 60 1016.5
20260508142306 63 56 2.0 9.0 0.00 0.35 0.00 62 1016.6
20260508142151 63 56 2.0 9.0 0.00 0.35 0.00 62 1016.6
20260508141547 63 47 3.0 10.0 0.00 0.35 0.00 63 1016.5
20260508141046 63 39 3.0 12.0 0.00 0.35 0.00 64 1016.5
20260508140825 62 54 3.0 12.0 0.00 0.35 0.00 66 1016.4
20260508140559 62 54 3.0 12.0 0.00 0.35 0.00 66 1016.4
20260508140058 62 57 4.0 12.0 0.00 0.35 0.00 66 1016.4
20260508135808 62 46 5.0 12.0 0.00 0.35 0.00 67 1016.4
20260508135544 62 46 5.0 12.0 0.00 0.35 0.00 67 1016.4
20260508135044 62 25 5.0 9.0 0.00 0.35 0.00 68 1016.3
20260508134543 62 26 5.0 8.0 0.00 0.35 0.00 69 1016.3
20260508134527 62 353 4.0 8.0 0.00 0.35 0.00 70 1016.4
20260508134149 62 353 4.0 8.0 0.00 0.35 0.00 70 1016.4
20260508133544 62 15 4.0 8.0 0.00 0.35 0.00 70 1016.4
20260508133314 62 345 4.0 8.0 0.00 0.35 0.00 72 1016.3
20260508133044 62 345 4.0 8.0 0.00 0.35 0.00 72 1016.3
20260508132542 62 352 3.0 8.0 0.00 0.35 0.00 70 1016.3
20260508132043 62 34 2.0 8.0 0.00 0.35 0.00 75 1016.3
20260508131543 61 342 2.0 4.0 0.00 0.35 0.00 78 1016.3
20260508131043 60 317 2.0 4.0 0.00 0.35 0.00 79 1016.2
20260508130541 60 345 2.0 4.0 0.00 0.35 0.00 78 1016.3
20260508130421 60 315 2.0 5.0 0.00 0.35 0.00 76 1016.3
20260508130310 60 348 2.0 5.0 0.00 0.35 0.00 76 1016.3
20260508125542 60 333 2.0 5.0 0.00 0.35 0.00 82 1016.3
20260508125538 60 342 2.0 5.0 0.00 0.35 0.00 82 1016.3
20260508125045 59 328 2.0 4.0 0.00 0.35 0.00 80 1016.2
20260508125040 59 299 2.0 4.0 0.00 0.35 0.00 80 1016.2
20260508124539 59 351 2.0 4.0 0.00 0.35 0.00 82 1016.1
20260508124045 59 352 2.0 5.0 0.00 0.35 0.00 85 1016.1
20260508124041 59 356 2.0 5.0 0.00 0.35 0.00 85 1016.1
20260508123807 58 355 3.0 5.0 0.00 0.35 0.00 83 1016.0
20260508123539 58 339 3.0 5.0 0.00 0.35 0.00 83 1016.0
20260508123326 57 325 2.0 3.0 0.00 0.35 0.00 100 1015.7
20260508123305 58 1 3.0 4.0 0.00 0.35 0.00 86 1016.0
20260508123046 58 358 2.0 5.0 0.00 0.35 0.00 91 1015.9
20260508123040 58 76 3.0 4.0 0.00 0.35 0.00 86 1016.0
20260508122756 57 335 2.0 5.0 0.00 0.35 0.00 95 1015.9
20260508122734 57 335 2.0 5.0 0.00 0.35 0.00 99 1015.8
20260508122602 58 1 2.0 5.0 0.00 0.35 0.00 97 1015.8
20260508122551 58 2 2.0 5.0 0.00 0.35 0.00 91 1015.9
20260508122045 57 350 2.0 5.0 0.00 0.35 0.00 95 1015.9
20260508121554 58 73 2.0 5.0 0.00 0.35 0.00 97 1015.8
20260508121039 57 335 2.0 5.0 0.00 0.35 0.00 99 1015.8
20260508120549 57 325 2.0 3.0 0.00 0.35 0.00 100 1015.7
20260508120256 56 335 2.0 3.0 0.00 0.35 0.00 99 1015.6
20260508120139 56 335 2.0 3.0 0.00 0.35 0.00 99 1015.6
20260508115756 55 332 2.0 3.0 0.00 0.35 0.00 100 1015.6
20260508115638 55 332 2.0 3.0 0.00 0.35 0.00 100 1015.6
20260508115035 55 341 2.0 2.0 0.00 0.35 0.00 99 1015.5
20260508114534 54 339 1.0 2.0 0.00 0.35 0.00 99 1015.4
20260508114255 53 338 1.0 2.0 0.00 0.35 0.00 99 1015.4
20260508114139 53 338 1.0 2.0 0.00 0.35 0.00 99 1015.4
20260508113758 52 337 1.0 2.0 0.00 0.35 0.00 99 1015.2
20260508113639 52 337 1.0 2.0 0.00 0.35 0.00 99 1015.2
20260508113034 52 326 1.0 2.0 0.00 0.35 0.00 99 1015.1
20260508112534 51 349 1.0 2.0 0.00 0.35 0.00 99 1015.1
20260508112034 50 343 1.0 2.0 0.00 0.35 0.00 99 1014.9
20260508111534 50 347 1.0 2.0 0.00 0.35 0.00 99 1014.9
20260508111037 49 231 1.0 2.0 0.00 0.35 0.00 99 1014.8
20260508110522 49 350 1.0 2.0 0.00 0.35 0.00 99 1014.7
20260508110008 49 352 1.0 2.0 0.00 0.35 0.00 99 1014.7
20260508105507 49 345 1.0 2.0 0.00 0.35 0.00 99 1014.6
20260508104953 49 333 2.0 2.0 0.00 0.35 0.00 99 1014.6
20260508104451 49 335 2.0 2.0 0.00 0.35 0.00 99 1014.5
20260508103953 49 352 2.0 2.0 0.00 0.35 0.00 99 1014.4
20260508103452 49 342 1.0 2.0 0.00 0.35 0.00 99 1014.4
20260508102952 49 356 1.0 2.0 0.00 0.35 0.00 99 1014.2
20260508102453 49 19 1.0 2.0 0.00 0.35 0.00 99 1014.1
20260508101953 49 328 1.0 2.0 0.00 0.35 0.00 99 1014.0
20260508101716 49 350 1.0 2.0 0.00 0.35 0.00 99 1014.1
20260508101557 49 350 1.0 2.0 0.00 0.35 0.00 99 1014.1
20260508100952 49 343 1.0 2.0 0.00 0.35 0.00 99 1013.9
20260508100436 49 339 1.0 2.0 0.00 0.35 0.00 99 1013.9
20260508095935 49 345 1.0 2.0 0.00 0.35 0.00 99 1013.9
20260508095435 49 354 1.0 2.0 0.00 0.35 0.00 99 1013.8
20260508094936 50 335 1.0 1.0 0.00 0.35 0.00 99 1013.8
20260508094435 50 325 1.0 2.0 0.00 0.35 0.00 99 1013.8
20260508093937 50 328 1.0 2.0 0.00 0.35 0.00 99 1013.7
20260508093437 50 322 1.0 2.0 0.00 0.35 0.00 99 1013.7
20260508092937 50 324 1.0 2.0 0.00 0.35 0.00 99 1013.7
20260508092700 50 318 1.0 2.0 0.00 0.35 0.00 99 1013.6
20260508092542 50 318 1.0 2.0 0.00 0.35 0.00 99 1013.6
20260508091921 50 326 1.0 2.0 0.00 0.35 0.00 99 1013.6
20260508091651 50 321 1.0 1.0 0.00 0.35 0.00 99 1013.6
20260508091527 50 321 1.0 1.0 0.00 0.35 0.00 99 1013.6
20260508090921 50 334 1.0 1.0 0.00 0.35 0.00 100 1013.5
20260508090425 51 332 1.0 2.0 0.00 0.35 0.00 99 1013.5
20260508085924 51 337 1.0 2.0 0.00 0.35 0.00 99 1013.6
20260508085426 51 327 1.0 1.0 0.00 0.35 0.00 99 1013.5
20260508084921 51 348 1.0 2.0 0.00 0.35 0.00 99 1013.3
20260508084422 51 336 1.0 2.0 0.00 0.35 0.00 99 1013.3
20260508083922 51 335 1.0 1.0 0.00 0.35 0.00 99 1013.3
20260508083422 51 351 1.0 2.0 0.00 0.35 0.00 99 1013.2
20260508082921 51 347 1.0 2.0 0.00 0.35 0.00 99 1013.2
20260508082423 51 347 1.0 2.0 0.00 0.35 0.00 99 1013.3
20260508081922 51 349 1.0 2.0 0.00 0.35 0.00 99 1013.2
20260508081423 51 20 1.0 2.0 0.00 0.35 0.00 99 1013.2
20260508080922 51 348 1.0 2.0 0.00 0.35 0.00 99 1013.0
20260508080435 51 0 1.0 2.0 0.00 0.35 0.00 100 1013.1
20260508075923 51 0 1.0 2.0 0.00 0.35 0.00 100 1013.0
20260508075645 51 336 1.0 2.0 0.00 0.35 0.00 100 1013.0
20260508075526 51 336 1.0 2.0 0.00 0.35 0.00 100 1013.0
20260508074908 51 0 0.0 1.0 0.00 0.35 0.00 100 1013.0
20260508074408 52 333 0.0 1.0 0.00 0.35 0.00 100 1013.0
20260508073908 52 0 0.0 2.0 0.00 0.35 0.00 100 1012.8
20260508073408 52 343 1.0 2.0 0.00 0.35 0.00 100 1012.8
20260508072909 52 346 1.0 2.0 0.00 0.35 0.00 100 1012.9
20260508072408 52 337 1.0 2.0 0.00 0.35 0.00 99 1012.8
20260508071908 52 350 1.0 2.0 0.00 0.35 0.00 99 1012.9
20260508071409 52 347 1.0 2.0 0.00 0.35 0.00 99 1012.8
20260508071118 52 345 1.0 2.0 0.00 0.35 0.00 100 1012.8
20260508070958 52 345 1.0 2.0 0.00 0.35 0.00 100 1012.8
20260508070623 52 336 1.0 2.0 0.00 0.35 0.00 100 1012.9
20260508070458 52 336 1.0 2.0 0.00 0.35 0.00 100 1012.9
20260508065853 52 341 1.0 2.0 0.00 0.35 0.00 100 1012.8
20260508065353 52 356 1.0 2.0 0.00 0.35 0.00 99 1012.8
20260508065337 52 338 1.0 2.0 0.00 0.35 0.00 100 1012.7
20260508064955 52 338 1.0 2.0 0.00 0.35 0.00 100 1012.7
20260508064356 52 357 1.0 1.0 0.00 0.35 0.00 99 1012.8
20260508064224 52 0 0.0 1.0 0.00 0.35 0.00 99 1012.7
20260508064121 52 0 0.0 1.0 0.00 0.35 0.00 99 1012.7
20260508063618 52 0 1.0 2.0 0.00 0.35 0.00 100 1012.6
20260508063356 52 0 1.0 2.0 0.00 0.35 0.00 100 1012.6
20260508062855 52 237 1.0 2.0 0.00 0.35 0.00 100 1012.7
20260508062355 51 355 1.0 2.0 0.00 0.35 0.00 100 1012.7
20260508061856 51 2 1.0 2.0 0.00 0.35 0.00 100 1012.5
20260508061601 51 345 1.0 2.0 0.00 0.35 0.00 100 1012.6
20260508061444 51 345 1.0 2.0 0.00 0.35 0.00 100 1012.6
20260508060825 52 355 1.0 2.0 0.00 0.35 0.00 100 1012.6
20260508060327 52 351 1.0 2.0 0.00 0.35 0.00 100 1012.7
20260508055825 52 341 1.0 2.0 0.00 0.35 0.00 100 1012.6
20260508055324 52 354 1.0 2.0 0.00 0.35 0.00 100 1012.5
20260508054825 52 357 1.0 2.0 0.00 0.35 0.00 100 1012.5
20260508054555 52 358 1.0 2.0 0.00 0.35 0.00 100 1012.5
20260508054430 52 358 1.0 2.0 0.00 0.35 0.00 100 1012.5
20260508053825 52 343 1.0 2.0 0.00 0.35 0.00 100 1012.5
20260508053326 52 343 1.0 2.0 0.00 0.35 0.00 100 1012.4
20260508053156 52 317 1.0 2.0 0.00 0.35 0.00 100 1012.4
20260508053048 52 317 1.0 2.0 0.00 0.35 0.00 100 1012.4
20260508052310 52 2 1.0 2.0 0.00 0.35 0.00 100 1012.4
20260508052030 52 0 0.0 1.0 0.00 0.35 0.00 100 1012.4
20260508051914 52 0 0.0 1.0 0.00 0.35 0.00 100 1012.4
20260508051310 52 0 1.0 1.0 0.00 0.35 0.00 100 1012.4
20260508050812 52 342 1.0 2.0 0.00 0.35 0.00 100 1012.4
20260508050255 52 14 1.0 2.0 0.00 0.35 0.00 100 1012.3
20260508045756 53 341 1.0 2.0 0.00 0.35 0.00 100 1012.5
20260508045255 53 339 1.0 2.0 0.00 0.35 0.00 100 1012.4
20260508044754 53 0 1.0 2.0 0.00 0.35 0.00 100 1012.5
20260508044520 53 317 1.0 2.0 0.00 0.35 0.00 100 1012.5
20260508044359 53 317 1.0 2.0 0.00 0.35 0.00 100 1012.5
20260508044235 53 0 0.0 1.0 0.00 0.35 0.00 100 1012.4
20260508043859 53 0 0.0 1.0 0.00 0.35 0.00 100 1012.4
20260508043516 53 275 1.0 2.0 0.00 0.35 0.00 100 1012.3
20260508043400 53 275 1.0 2.0 0.00 0.35 0.00 100 1012.3